TimeCST,TemperatureF,Dew PointF,Humidity,Sea Level PressureIn,VisibilityMPH,Wind Direction,Wind SpeedMPH,Gust SpeedMPH,PrecipitationIn,Events,Conditions,WindDirDegrees,DateUTC
12:15 AM,46.4,41.0,81,29.60,10.0,WSW,13.8,-,N/A,,Overcast,250,2012-12-16 06:15:00
12:55 AM,44.6,39.2,81,29.60,10.0,West,13.8,-,N/A,,Overcast,260,2012-12-16 06:55:00
1:15 AM,44.6,39.2,81,29.60,10.0,West,12.7,-,N/A,,Overcast,260,2012-12-16 07:15:00
1:35 AM,44.6,39.2,81,29.60,10.0,WSW,12.7,-,N/A,,Overcast,250,2012-12-16 07:35:00
1:55 AM,44.6,39.2,81,29.60,10.0,West,16.1,-,N/A,,Overcast,260,2012-12-16 07:55:00
2:15 AM,44.6,39.2,81,29.61,10.0,West,13.8,-,N/A,,Overcast,260,2012-12-16 08:15:00
2:55 AM,44.6,39.2,81,29.62,10.0,West,15.0,-,N/A,,Overcast,260,2012-12-16 08:55:00
3:15 AM,42.8,37.4,81,29.62,10.0,West,19.6,-,N/A,,Overcast,270,2012-12-16 09:15:00
3:35 AM,42.8,37.4,81,29.63,10.0,West,18.4,26.5,N/A,,Overcast,270,2012-12-16 09:35:00
3:55 AM,42.8,37.4,81,29.62,10.0,West,18.4,-,N/A,,Overcast,270,2012-12-16 09:55:00
4:15 AM,41.0,37.4,87,29.62,9.0,West,16.1,-,N/A,,Overcast,270,2012-12-16 10:15:00
4:35 AM,41.0,37.4,87,29.63,6.0,West,15.0,21.9,N/A,,Overcast,270,2012-12-16 10:35:00
4:55 AM,39.2,37.4,93,29.63,5.0,West,16.1,-,N/A,,Overcast,270,2012-12-16 10:55:00
5:15 AM,39.2,35.6,87,29.64,7.0,West,16.1,-,N/A,,Overcast,280,2012-12-16 11:15:00
5:35 AM,39.2,33.8,81,29.65,9.0,West,17.3,-,N/A,,Overcast,270,2012-12-16 11:35:00
5:55 AM,39.2,33.8,81,29.65,8.0,West,16.1,-,N/A,,Overcast,270,2012-12-16 11:55:00
6:15 AM,39.2,33.8,81,29.65,10.0,West,16.1,23.0,N/A,,Overcast,280,2012-12-16 12:15:00
6:35 AM,37.4,33.8,87,29.66,10.0,West,16.1,-,N/A,,Overcast,270,2012-12-16 12:35:00
7:15 AM,37.4,33.8,87,29.68,9.0,West,15.0,-,N/A,,Overcast,270,2012-12-16 13:15:00
7:35 AM,37.4,33.8,87,29.69,9.0,West,15.0,-,N/A,,Overcast,270,2012-12-16 13:35:00
7:55 AM,37.4,33.8,87,29.69,8.0,WNW,13.8,-,N/A,,Overcast,290,2012-12-16 13:55:00
8:15 AM,37.4,33.8,87,29.69,8.0,West,15.0,-,N/A,,Overcast,280,2012-12-16 14:15:00
8:35 AM,37.4,32.0,81,29.69,8.0,West,15.0,-,N/A,,Overcast,280,2012-12-16 14:35:00
8:55 AM,37.4,33.8,87,29.70,7.0,West,13.8,-,N/A,,Overcast,270,2012-12-16 14:55:00
9:15 AM,37.4,33.8,87,29.70,6.0,WNW,13.8,-,N/A,,Overcast,290,2012-12-16 15:15:00
9:35 AM,37.4,33.8,87,29.71,5.0,West,17.3,-,N/A,,Overcast,280,2012-12-16 15:35:00
9:55 AM,37.4,32.0,81,29.72,5.0,WNW,15.0,-,N/A,,Overcast,290,2012-12-16 15:55:00
10:15 AM,37.4,33.8,87,29.72,5.0,West,13.8,18.4,N/A,,Overcast,280,2012-12-16 16:15:00
10:35 AM,37.4,33.8,87,29.73,5.0,West,16.1,-,N/A,,Overcast,280,2012-12-16 16:35:00
10:55 AM,37.4,33.8,87,29.72,5.0,West,13.8,-,N/A,,Overcast,280,2012-12-16 16:55:00
11:15 AM,37.4,33.8,87,29.71,5.0,WNW,15.0,-,N/A,,Overcast,300,2012-12-16 17:15:00
11:35 AM,37.4,33.8,87,29.70,5.0,WNW,13.8,-,N/A,,Overcast,300,2012-12-16 17:35:00
11:55 AM,37.4,32.0,81,29.71,6.0,WNW,13.8,-,N/A,,Overcast,300,2012-12-16 17:55:00
12:15 PM,37.4,30.2,75,29.71,7.0,WNW,15.0,-,N/A,,Overcast,290,2012-12-16 18:15:00
12:35 PM,37.4,30.2,75,29.70,8.0,WNW,13.8,-,N/A,,Overcast,300,2012-12-16 18:35:00
12:55 PM,37.4,30.2,75,29.70,8.0,NW,12.7,-,N/A,,Overcast,310,2012-12-16 18:55:00
1:15 PM,37.4,30.2,75,29.70,10.0,NW,12.7,18.4,N/A,,Overcast,320,2012-12-16 19:15:00
1:35 PM,37.4,30.2,75,29.70,10.0,NW,8.1,-,N/A,,Overcast,320,2012-12-16 19:35:00
1:55 PM,37.4,30.2,75,29.69,8.0,NW,9.2,-,N/A,,Overcast,320,2012-12-16 19:55:00
2:15 PM,37.4,32.0,81,29.69,8.0,NW,11.5,-,N/A,,Overcast,320,2012-12-16 20:15:00
2:35 PM,37.4,30.2,75,29.69,8.0,NW,10.4,-,N/A,,Overcast,320,2012-12-16 20:35:00
2:55 PM,37.4,30.2,75,29.69,9.0,NW,8.1,-,N/A,,Overcast,320,2012-12-16 20:55:00
3:15 PM,37.4,32.0,81,29.69,9.0,NW,8.1,-,N/A,,Overcast,310,2012-12-16 21:15:00
3:35 PM,37.4,32.0,81,29.69,9.0,NW,6.9,-,N/A,,Overcast,310,2012-12-16 21:35:00
3:55 PM,37.4,32.0,81,29.69,10.0,NNW,8.1,-,N/A,,Overcast,330,2012-12-16 21:55:00
4:15 PM,37.4,32.0,81,29.70,10.0,NNW,6.9,-,N/A,,Overcast,330,2012-12-16 22:15:00
4:35 PM,37.4,30.2,75,29.71,10.0,NNW,6.9,-,N/A,,Overcast,330,2012-12-16 22:35:00
4:55 PM,37.4,30.2,75,29.71,10.0,North,4.6,-,N/A,,Overcast,350,2012-12-16 22:55:00
5:15 PM,37.4,30.2,75,29.72,10.0,NW,5.8,-,N/A,,Overcast,310,2012-12-16 23:15:00
5:35 PM,37.4,30.2,75,29.74,10.0,NW,5.8,-,N/A,,Overcast,310,2012-12-16 23:35:00
5:55 PM,37.4,30.2,75,29.75,10.0,WNW,5.8,-,N/A,,Overcast,300,2012-12-16 23:55:00
6:15 PM,37.4,30.2,75,29.76,10.0,NW,5.8,-,N/A,,Overcast,310,2012-12-17 00:15:00
6:35 PM,37.4,30.2,75,29.76,10.0,West,4.6,-,N/A,,Overcast,280,2012-12-17 00:35:00
6:55 PM,37.4,30.2,75,29.77,10.0,NW,4.6,-,N/A,,Overcast,310,2012-12-17 00:55:00
7:15 PM,35.6,30.2,81,29.77,10.0,WNW,4.6,-,N/A,,Overcast,300,2012-12-17 01:15:00
7:35 PM,35.6,32.0,87,29.77,8.0,WNW,6.9,-,N/A,,Overcast,290,2012-12-17 01:35:00
7:55 PM,35.6,32.0,87,29.77,7.0,WNW,6.9,-,N/A,,Mostly Cloudy,290,2012-12-17 01:55:00
8:15 PM,35.6,32.0,87,29.77,7.0,NW,6.9,-,N/A,,Mostly Cloudy,310,2012-12-17 02:15:00
8:35 PM,35.6,30.2,81,29.77,7.0,WNW,6.9,-,N/A,,Overcast,300,2012-12-17 02:35:00
8:55 PM,35.6,30.2,81,29.78,6.0,WNW,6.9,-,N/A,,Overcast,300,2012-12-17 02:55:00
9:15 PM,35.6,30.2,81,29.77,6.0,WNW,8.1,-,N/A,,Overcast,300,2012-12-17 03:15:00
9:35 PM,35.6,30.2,81,29.77,5.0,WNW,9.2,-,N/A,,Overcast,290,2012-12-17 03:35:00
9:55 PM,35.6,30.2,81,29.77,5.0,WNW,5.8,-,N/A,,Overcast,300,2012-12-17 03:55:00
10:15 PM,35.6,30.2,81,29.76,5.0,NW,6.9,-,N/A,,Mostly Cloudy,320,2012-12-17 04:15:00
10:35 PM,33.8,30.2,87,29.77,6.0,NW,8.1,-,N/A,,Mostly Cloudy,320,2012-12-17 04:35:00
10:55 PM,33.8,28.4,81,29.77,6.0,NW,9.2,-,N/A,,Overcast,320,2012-12-17 04:55:00
11:15 PM,33.8,28.4,81,29.78,5.0,NW,9.2,-,N/A,,Overcast,310,2012-12-17 05:15:00
11:35 PM,33.8,28.4,81,29.78,5.0,WNW,6.9,-,N/A,,Overcast,290,2012-12-17 05:35:00
11:55 PM,33.8,28.4,81,29.78,5.0,West,5.8,-,N/A,,Overcast,280,2012-12-17 05:55:00